Regional Weather Roundup
Issued by NWS Cleveland, OH

Home | Current Version | Previous Version | Text Only | Print | Product List | Glossary Off
Versions: 1 2 3 4 5 6 7 8 9 10 11 12 13 14 15 16 17 18 19 20 21 22 23 24 25 26 27 28 29 30 31 32 33 34 35 36 37 38 39 40 41 42 43 44 45 46 47 48 49 50

000
ASUS41 KCLE 290210
RWRCLE
OHIO REGIONAL WEATHER ROUNDUP
NATIONAL WEATHER SERVICE WILMINGTON, OH
1000 PM EDT MON JUL 28 2014

NOTE: "FAIR" INDICATES FEW OR NO CLOUDS BELOW 12,000 FEET WITH NO
SIGNIFICANT WEATHER AND/OR OBSTRUCTIONS TO VISIBILITY.

OHZ001>008-015>018-024>027-034-035-043-044-290300-
   NORTHWEST OHIO

CITY           SKY/WX    TMP DP  RH WIND       PRES   REMARKS
DEFIANCE       CLEAR     61  52  72 NW5       30.00R
FINDLAY        CLOUDY    67  53  61 N9        29.97R
TOLEDO EXPRESS MOCLDY    63  51  65 N9        29.99R
TOLEDO METCALF CLOUDY    64  51  62 N8        30.00R
LIMA           CLEAR     62  53  72 NW13      30.00R
$$

OHZ009>014-019>023-028>033-038-089-290300-
   NORTHEAST OHIO

CITY           SKY/WX    TMP DP  RH WIND       PRES   REMARKS
CLE-HOPKINS    CLOUDY    61  50  67 N14       29.99R
CLE-LAKEFRONT  CLOUDY    62  50  64 N17       29.96R
CUY CO. ARPT   MOCLDY    61  50  67 N9        29.98R
LORAIN-ELYRIA  CLOUDY    64  52  64 NE13      29.98R
ASHTABULA      CLOUDY    57  47  69 NW9       29.96R
AKRON-CANTON   MOCLDY    57  51  80 NW3       29.97R
WOOSTER        CLOUDY    59  55  87 CALM      29.98R
MANSFIELD      CLOUDY    60  55  83 N3        29.98R
YOUNGSTOWN     CLOUDY    58  50  75 NW7       29.96R
$$

OHZ042-051>053-060>062-070>072-077>081-290300-
  SOUTHWEST OHIO

CITY           SKY/WX    TMP DP  RH WIND       PRES   REMARKS
CINC-COVINGTON CLEAR     64  52  64 NW14G24   30.01R
CINC-LUNKEN    CLEAR     66  55  67 NW12G20   30.01R
HAMILTON       CLEAR     63  54  72 NW10      30.02R
DAYTON         CLEAR     61  53  75 NW9       30.02R
WRIGHT-PAT AFB CLEAR     63  55  77 NW8       30.01R
DAYTON GENERAL CLEAR     63  54  72 NW12      30.00R
WILMINGTON     MOCLDY    65  55  70 NW13      29.99R
$$

OHZ036-037-039>041-045>050-054>059-063>069-073>076-082>088-290300-
  CENTRAL AND SOUTHEAST OHIO

CITY           SKY/WX    TMP DP  RH WIND       PRES   REMARKS
COLUMBUS       MOCLDY    68  54  60 N3        29.95R
OSU AIRPORT    CLOUDY    65  56  72 CALM      29.96R
BOLTON FIELD   PTCLDY    64  56  77 W5        29.97R
RICKENBACK AFB MOCLDY    67  51  55 NW5       29.95S
NEWARK         MOCLDY    60  57  89 CALM      29.96R
MARION         CLOUDY    62  56  80 NE6       29.97R
LANCASTER      MOCLDY    63  59  87 CALM      29.96R
ZANESVILLE     CLOUDY    63  53  70 N5        29.96R
NEW PHILLY     CLEAR     59  53  80 CALM      29.96R
$$


USA.gov is the U.S. government's official web portal to all federal, state and local government web resources and services.